Regional Weather Roundup
Issued by NWS Sioux Falls, SD

Home | Current Version | Previous Version | Text Only | Print | Product List | Glossary On
Versions: 1 2 3 4 5 6 7 8 9 10 11 12 13 14 15 16 17 18 19 20 21 22 23 24 25 26 27 28 29 30 31 32 33 34 35 36 37 38 39 40 41 42 43 44 45 46 47 48 49 50
000
ASUS43 KFSD 220610
RWRFSD

WEATHER ROUNDUP FOR SE SOUTH DAKOTA/SW MINNESOTA/NW IOWA
NATIONAL WEATHER SERVICE SIOUX FALLS SD
1200 AM CST MON DEC 22 2014

NOTE: "FAIR" INDICATES FEW OR NO CLOUDS BELOW 12,000 FEET WITH NO
SIGNIFICANT WEATHER AND OR OBSTRUCTIONS TO VISIBILITY.


SDZ038>040-050-052>070-220700-
SOUTHEAST SOUTH DAKOTA

CITY           SKY/WX    TMP DP  RH WIND       PRES   REMARKS
CHAMBERLAIN    CLOUDY    35  32  88 SW8       29.44R WCI  29
6HR MIN TEMP:  31; 6HR MAX TEMP:  36;

HURON          CLOUDY    36  34  92 S10       29.44F
6HR MIN TEMP:  35; 6HR MAX TEMP:  37;

MADISON        CLOUDY    36  36 100 S15G24    29.51F
MITCHELL       LGT RAIN  39  36  89 S13       29.48S
6HR MIN TEMP:  36; 6HR MAX TEMP:  39; 6HR PCP: TRACE;

SIOUX FALLS    CLOUDY    40  37  89 S21G30    29.54S
6HR MIN TEMP:  37; 6HR MAX TEMP:  40;

WINNER         CLOUDY    39  31  72 SW7       29.44S
YANKTON        CLOUDY    39  37  93 S12       29.54S
$$

MNZ071-072-080-081-089-090-097-098-220700-
SOUTHWEST MINNESOTA

CITY           SKY/WX    TMP DP  RH WIND       PRES   REMARKS
FAIRMONT       CLOUDY    37  36  93 S15       29.66S
JACKSON        CLOUDY    37  36  93 S13       29.64S FOG
LUVERNE        CLOUDY    39  37  93 S15       29.57F FOG
MARSHALL       CLOUDY    37  34  87 S15       29.57S
6HR MIN TEMP:  37; 6HR MAX TEMP:  37;

MONTEVIDEO     CLOUDY    36  36 100 S10       29.59S FOG
PIPESTONE      CLOUDY    37  37 100 S20       29.54S FOG
REDWOOD FALLS  CLOUDY    37  36  96 SE17      29.61F
TRACY          CLOUDY    39  37  93 S14G21    29.57S
WINDOM         CLOUDY    39  37  93 SE14G23   29.61F
WORTHINGTON    CLOUDY    37 -11  12 S20       29.59F
$$

IAZ001>003-012>014-020>022-031-032-NEZ013-014-SDZ071-220700-
NORTHWEST IOWA

CITY           SKY/WX    TMP DP  RH WIND       PRES   REMARKS
CHEROKEE       CLOUDY    40  40 100 S14       29.62F FOG
DENISON        CLOUDY    41  41 100 S16G22    29.63F FOG
ESTHERVILLE    CLOUDY    37  37 100 S20       29.64F FOG
LE MARS        CLOUDY    41  41 100 S17G25    29.59S
ORANGE CITY    CLOUDY    41  39  93 S13G18    29.59S FOG
SHELDON        CLOUDY    39  39 100 S20       29.58F FOG
SIOUX CITY     CLOUDY    42  40  92 SE13      29.60F FOG
6HR MIN TEMP:  41; 6HR MAX TEMP:  42; 6HR PCP: TRACE;

SPENCER        CLOUDY    40  38  93 S17       29.63S FOG
6HR MIN TEMP:  38; 6HR MAX TEMP:  40;

STORM LAKE     CLOUDY    39  39 100 S20       29.64F FOG
$$

ABBREVIATIONS USED IN REMARKS
   TC - TEMPERATURE IN CELSIUS
  WCI - WIND CHILL INDEX
   HX - HEAT INDEX
  VSB - VISIBILITY




USA.gov is the U.S. government's official web portal to all federal, state and local government web resources and services.